CBERS 4

Last updated on Thu Jul 03 2025 00:02:30 GMT+0000 (Coordinated Universal Time)

1 40336U 14079A 25183.62372957 .00000079 00000+0 42164-4 0 9993 2 40336 98.3525 246.9890 0000515 78.6830 281.4414 14.35515526553803
UTC large
Height (km)
Speed (km/s)
/
Latitude / Longitude
Inclination (degrees)
Orbital Period (minutes)
Azimuth
Elevation
Range (km)
Doppler Factor

Next 0 passes for location: London (51.5072 / 0.1276)

Sorry there are no passes over London.